Regional Weather Roundup
Issued by NWS

Home | Current Version | Previous Version | Text Only | Print | Product List | Glossary On
Versions: 1 2 3 4 5 6 7 8 9 10 11 12 13 14 15 16 17 18 19 20 21 22 23 24 25 26 27 28 29 30 31 32 33 34 35 36 37 38 39 40 41 42 43 44 45 46 47 48 49 50
000
ASUS43 KDMX 311907
RWRIA

WEATHER ROUNDUP FOR IOWA
NATIONAL WEATHER SERVICE DES MOINES IA
200 PM CDT MON AUG 31 2015

NOTE: "FAIR" INDICATES FEW OR NO CLOUDS BELOW 12,000 FEET WITH NO
SIGNIFICANT WEATHER AND/OR OBSTRUCTIONS TO VISIBILITY.

* - THESE STATIONS ARE NOT NWS STATIONS...THUS NOT UNDER NWS
QUALITY CONTROL.  THEY ALSO DO NOT REPORT WEATHER SUCH
AS PRECIPITATION OR FOG.

IAZ001>003-012>014-020>022-031>034-043>046-312000-
   NORTHWEST IOWA

CITY           SKY/WX    TMP DP  RH WIND       PRES   REMARKS
CARROLL *      MOSUNNY   82  73  74 MISG      29.96S HX  88
CHEROKEE *     MOSUNNY   81  72  74 S12       29.94S HX  84
DENISON *      MOSUNNY   81  70  69 S16G23    29.94S HX  84
LE MARS *      MOSUNNY   81  70  69 S16G22    29.93R HX  84
ORANGE CITY *  MOSUNNY   81  70  69 S15       29.93S HX  84
SHELDON *      SUNNY     81  68  65 S14G20    29.92S HX  83
SIOUX CITY     MOSUNNY   83  68  60 S13       29.92S HX  86
SPENCER        PTSUNNY   80  67  64 MISG      29.94F HX  82
STORM LAKE *   MOSUNNY   79  70  73 S14G20    29.96F HX  81
$$

IAZ055>058-069>071-079>083-090>094-312000-
   SOUTHWEST IOWA

CITY           SKY/WX    TMP DP  RH WIND       PRES   REMARKS
ATLANTIC *     MOSUNNY   82  72  69 S9G15     29.97S HX  87
AUDUBON *        N/A     82  73  74 S12G17    29.98F HX  88
CLARINDA *     SUNNY     84  72  65 S10       29.98F HX  89
COUNCIL BLFS * MOSUNNY   82  68  61 S8G14     29.96F HX  85
CRESTON *      PTSUNNY   82  73  74 S10       30.00S HX  88
LAMONI         PTSUNNY   85  72  65 S8        29.98F HX  91
RED OAK *      MOSUNNY   84  68  58 S10       29.97S HX  87
SHENANDOAH *   MOSUNNY   84  68  58 S10       29.96F HX  87
$$

IAZ047>049-059>061-072>074-084-312000-
   CENTRAL IOWA

CITY           SKY/WX    TMP DP  RH WIND       PRES   REMARKS
AMES           MOSUNNY   84  73  69 S12       29.97F HX  90
ANKENY *       PTSUNNY   86  73  66 S12G18    29.96F HX  93
CHARITON *     MOSUNNY   84  73  70 S7G15     29.98F HX  91
DES MOINES     MOSUNNY   87  71  58 S13       29.96F HX  93
GRINNELL*      MOSUNNY   84  72  65 S10       30.00F HX  89
KNOXVILLE *    MOSUNNY   86  73  66 S13       29.97S HX  93
MARSHALLTOWN   PTSUNNY   83  73  72 S13       29.97F HX  89
PELLA *        MOSUNNY   88  75  66 S10       29.99F HX  97
PERRY *        PTSUNNY   84  72  65 S9        29.97S HX  89
$$

IAZ004>006-015-016-023>025-035-036-312000-
   NORTH CENTRAL IOWA

CITY           SKY/WX    TMP DP  RH WIND       PRES   REMARKS
ALGONA *       MOSUNNY   82  72  69 S16G22    29.96S HX  87
CLARION *      MOSUNNY   82  73  74 S14G21    29.96F HX  88
ESTHERVILLE    MOSUNNY   80  69  69 S16G25    29.94F HX  83
FORT DODGE *   PTSUNNY   82  72  69 S10       29.96F HX  87
MASON CITY     PTSUNNY   83  73  72 S15       29.98S HX  89
FOREST CITY *    N/A     81  70  69 S13G20    29.96F HX  84
IOWA FALLS *   PTSUNNY   84  73  70 S12G20    29.99S HX  91
$$

IAZ007>011-017>019-026>030-037>042-050>054-066-312000-
   NORTHEAST IOWA

CITY           SKY/WX    TMP DP  RH WIND       PRES   REMARKS
CEDAR RAPIDS   MOSUNNY   83  75  77 SE9       30.00F HX  90
CHARLES CITY * MOSUNNY   82  77  83 S9G20     29.99S HX  91
CLINTON *      SUNNY     84  70  61 S10       30.05F HX  88
DECORAH *      MOSUNNY   81  72  74 S10G16    30.00S HX  84
DUBUQUE        MOSUNNY   81  70  69 S8        30.04F HX  84
MONTICELLO *   PTSUNNY   84  72  65 SE10      30.01F HX  89
OELWEIN *      MOSUNNY   82  73  74 S12       30.01F HX  88
WATERLOO       PTSUNNY   84  72  67 S14       29.98F HX  89
$$

IAZ064-065-067-068-078-312000-
   EAST CENTRAL IOWA

CITY           SKY/WX    TMP DP  RH WIND       PRES   REMARKS
DAVENPORT      MOSUNNY   84  70  62 S7        30.03F HX  88
IOWA CITY      MOSUNNY   86  73  65 SE8       30.01F HX  93
MT. PLEASANT * MOSUNNY   89  67  48 SE6       30.00F HX  91
MUSCATINE *    MOSUNNY   90  72  55 SE8       30.00F HX  96
QUAD CITIES    MOSUNNY   87  70  56 VRB7      30.02F HX  92
$$

IAZ062-063-075>077-085>089-095>099-312000-
   SOUTHEAST IOWA

CITY           SKY/WX    TMP DP  RH WIND       PRES   REMARKS
BURLINGTON     SUNNY     88  73  61 S9        30.01F HX  95
FAIRFIELD *    PTSUNNY   88  72  58 SE12      30.00F HX  94
FORT MADISON * SUNNY     88  73  62 S7        30.02S HX  96
KEOKUK *       MOSUNNY   88  70  55 S9        30.00S HX  92
OSKALOOSA *      N/A     88  72  58 S10G16    29.99F HX  94
CENTERVILLE *  SUNNY     86  73  66 SE14      30.00F HX  93
OTTUMWA        MOSUNNY   87  74  64 S12       29.97F HX  95
WASHINGTON *     N/A    N/A N/A N/A MISG        N/A
$$

ABBREVIATIONS USED IN REMARKS
   TC - TEMPERATURES IN CELSIUS
  WCI - WIND CHILL INDEX
   HX - HEAT INDEX
  VSB - VISIBILITY
$$




USA.gov is the U.S. government's official web portal to all federal, state and local government web resources and services.